Time,TemperatureF,DewpointF,PressureIn,WindDirection,WindDirectionDegrees,WindSpeedMPH,WindSpeedGustMPH,Humidity,HourlyPrecipIn,Conditions,Clouds,dailyrainin,SolarRadiationWatts/m^2,SoftwareType,DateUTC
2013-06-30 00:02:00,60.0,58.0,-100.00,NNW,348,1.0,4.0,94,0.00,,,0.00,0.000000,,2013-06-30 07:02:00,
2013-06-30 00:12:00,60.0,58.0,-100.00,NNW,348,1.0,4.0,94,0.00,,,0.00,0.000000,,2013-06-30 07:12:00,
2013-06-30 00:44:00,59.0,58.0,-100.00,North,7,2.0,3.0,97,0.00,,,0.00,0.000000,,2013-06-30 07:44:00,
2013-06-30 00:53:00,59.0,58.0,-100.00,North,7,2.0,3.0,97,0.00,,,0.00,0.000000,,2013-06-30 07:53:00,
2013-06-30 01:02:00,59.0,58.0,-100.00,North,7,2.0,3.0,97,0.00,,,0.00,0.000000,,2013-06-30 08:02:00,
2013-06-30 01:11:00,59.0,58.0,-100.00,North,7,2.0,3.0,97,0.00,,,0.00,0.000000,,2013-06-30 08:11:00,
2013-06-30 01:42:00,58.0,58.0,-100.00,NNE,28,3.0,4.0,99,0.00,,,0.00,0.000000,,2013-06-30 08:42:00,
2013-06-30 01:53:00,58.0,58.0,-100.00,NNE,28,3.0,4.0,99,0.00,,,0.00,0.000000,,2013-06-30 08:53:00,
2013-06-30 02:01:00,58.0,58.0,-100.00,NNE,28,3.0,4.0,99,0.00,,,0.00,0.000000,,2013-06-30 09:01:00,
2013-06-30 02:11:00,58.0,58.0,-100.00,NNE,28,3.0,4.0,99,0.00,,,0.00,0.000000,,2013-06-30 09:11:00,
2013-06-30 02:43:00,58.0,58.0,-100.00,North,10,2.0,4.0,100,0.00,,,0.00,0.000000,,2013-06-30 09:43:00,
2013-06-30 02:53:00,58.0,58.0,-100.00,North,10,2.0,4.0,100,0.00,,,0.00,0.000000,,2013-06-30 09:53:00,
2013-06-30 03:02:00,58.0,58.0,-100.00,North,10,2.0,4.0,100,0.00,,,0.00,0.000000,,2013-06-30 10:02:00,
2013-06-30 03:11:00,58.0,58.0,-100.00,North,10,2.0,4.0,100,0.00,,,0.00,0.000000,,2013-06-30 10:11:00,
2013-06-30 03:34:00,58.0,58.0,-100.00,NNE,29,3.0,4.0,100,0.00,,,0.00,0.000000,,2013-06-30 10:34:00,
2013-06-30 03:43:00,58.0,58.0,-100.00,NNE,29,3.0,4.0,100,0.00,,,0.00,0.000000,,2013-06-30 10:43:00,
2013-06-30 03:53:00,58.0,58.0,-100.00,NNE,29,3.0,4.0,100,0.00,,,0.00,0.000000,,2013-06-30 10:53:00,
2013-06-30 04:02:00,58.0,58.0,-100.00,NNE,29,3.0,4.0,100,0.00,,,0.00,0.000000,,2013-06-30 11:02:00,
2013-06-30 04:11:00,58.0,58.0,-100.00,NNE,29,3.0,4.0,100,0.00,,,0.00,0.000000,,2013-06-30 11:11:00,
2013-06-30 04:43:00,58.0,58.0,-100.00,NNE,30,2.0,4.0,100,0.00,,,-99.99,0.000000,,2013-06-30 11:43:00,
2013-06-30 04:53:00,58.0,58.0,-100.00,NNE,30,2.0,4.0,100,0.00,,,-99.99,0.000000,,2013-06-30 11:53:00,
2013-06-30 05:01:00,58.0,58.0,-100.00,NNE,30,2.0,4.0,100,0.00,,,-99.99,0.000000,,2013-06-30 12:01:00,
2013-06-30 05:11:00,58.0,58.0,-100.00,NNE,30,2.0,4.0,100,0.00,,,-99.99,0.000000,,2013-06-30 12:11:00,
2013-06-30 05:43:00,58.0,58.0,-100.00,ENE,63,1.0,3.0,100,0.00,,,0.00,0.000000,,2013-06-30 12:43:00,
2013-06-30 05:52:00,58.0,58.0,-100.00,ENE,63,1.0,3.0,100,0.00,,,0.00,0.000000,,2013-06-30 12:52:00,
2013-06-30 06:02:00,58.0,58.0,-100.00,ENE,63,1.0,3.0,100,0.00,,,0.00,0.000000,,2013-06-30 13:02:00,
2013-06-30 06:12:00,58.0,58.0,-100.00,ENE,63,1.0,3.0,100,0.00,,,0.00,0.000000,,2013-06-30 13:12:00,
2013-06-30 06:44:00,58.0,58.0,-100.00,NE,41,1.0,2.0,100,0.00,,,0.00,4.000000,,2013-06-30 13:44:00,
2013-06-30 06:53:00,58.0,58.0,-100.00,NE,41,1.0,2.0,100,0.00,,,0.00,4.000000,,2013-06-30 13:53:00,
2013-06-30 07:02:00,58.0,58.0,-100.00,NE,41,1.0,2.0,100,0.00,,,0.00,4.000000,,2013-06-30 14:02:00,
2013-06-30 07:11:00,58.0,58.0,-100.00,NE,41,1.0,2.0,100,0.00,,,0.00,4.000000,,2013-06-30 14:11:00,
2013-06-30 07:44:00,59.0,59.0,-100.00,ESE,116,1.0,2.0,100,0.00,,,0.00,59.000000,,2013-06-30 14:44:00,
2013-06-30 07:52:00,59.0,59.0,-100.00,ESE,116,1.0,2.0,100,0.00,,,0.00,59.000000,,2013-06-30 14:52:00,
2013-06-30 08:02:00,59.0,59.0,-100.00,ESE,116,1.0,2.0,100,0.00,,,0.00,59.000000,,2013-06-30 15:02:00,
2013-06-30 08:12:00,59.0,59.0,-100.00,ESE,116,1.0,2.0,100,0.00,,,0.00,59.000000,,2013-06-30 15:12:00,
2013-06-30 08:44:00,60.0,60.0,-100.00,WSW,249,1.0,3.0,100,0.00,,,0.00,157.000000,,2013-06-30 15:44:00,
2013-06-30 08:53:00,60.0,60.0,-100.00,WSW,249,1.0,3.0,100,0.00,,,0.00,157.000000,,2013-06-30 15:53:00,
2013-06-30 09:01:00,60.0,60.0,-100.00,WSW,249,1.0,3.0,100,0.00,,,0.00,157.000000,,2013-06-30 16:01:00,
2013-06-30 09:11:00,60.0,60.0,-100.00,WSW,249,1.0,3.0,100,0.00,,,0.00,157.000000,,2013-06-30 16:11:00,
2013-06-30 09:44:00,62.0,62.0,-100.00,West,276,2.0,3.0,99,0.00,,,0.00,236.000000,,2013-06-30 16:44:00,
2013-06-30 09:53:00,62.0,62.0,-100.00,West,276,2.0,3.0,99,0.00,,,0.00,236.000000,,2013-06-30 16:53:00,
2013-06-30 10:01:00,62.0,62.0,-100.00,West,276,2.0,3.0,99,0.00,,,0.00,236.000000,,2013-06-30 17:01:00,
2013-06-30 10:11:00,62.0,62.0,-100.00,West,276,2.0,3.0,99,0.00,,,0.00,236.000000,,2013-06-30 17:11:00,
2013-06-30 11:43:00,72.0,64.0,-100.00,NW,317,2.0,4.0,76,0.00,,,0.00,903.000000,,2013-06-30 18:43:00,
2013-06-30 11:53:00,72.0,64.0,-100.00,NW,317,2.0,4.0,76,0.00,,,0.00,903.000000,,2013-06-30 18:53:00,
2013-06-30 12:01:00,72.0,64.0,-100.00,NW,317,2.0,4.0,76,0.00,,,0.00,903.000000,,2013-06-30 19:01:00,
2013-06-30 12:11:00,72.0,64.0,-100.00,NW,317,2.0,4.0,76,0.00,,,0.00,903.000000,,2013-06-30 19:11:00,
2013-06-30 12:43:00,71.0,62.0,-100.00,West,281,3.0,6.0,72,0.00,,,0.00,975.000000,,2013-06-30 19:43:00,
2013-06-30 12:53:00,71.0,62.0,-100.00,West,281,3.0,6.0,72,0.00,,,0.00,975.000000,,2013-06-30 19:53:00,
2013-06-30 13:01:00,71.0,62.0,-100.00,West,281,3.0,6.0,72,0.00,,,0.00,975.000000,,2013-06-30 20:01:00,
2013-06-30 13:11:00,71.0,62.0,-100.00,West,281,3.0,6.0,72,0.00,,,0.00,975.000000,,2013-06-30 20:11:00,
2013-06-30 13:42:00,74.0,61.0,-100.00,WNW,303,3.0,6.0,65,0.00,,,0.00,1010.000000,,2013-06-30 20:42:00,
2013-06-30 13:52:00,74.0,61.0,-100.00,WNW,303,3.0,6.0,65,0.00,,,0.00,1010.000000,,2013-06-30 20:52:00,
2013-06-30 14:01:00,74.0,61.0,-100.00,WNW,303,3.0,6.0,65,0.00,,,0.00,1010.000000,,2013-06-30 21:01:00,
2013-06-30 14:11:00,74.0,61.0,-100.00,WNW,303,3.0,6.0,65,0.00,,,0.00,1010.000000,,2013-06-30 21:11:00,
2013-06-30 14:43:00,76.0,60.0,-100.00,NNE,31,3.0,6.0,58,0.00,,,0.00,1023.000000,,2013-06-30 21:43:00,
2013-06-30 14:53:00,76.0,60.0,-100.00,NNE,31,3.0,6.0,58,0.00,,,0.00,1023.000000,,2013-06-30 21:53:00,
2013-06-30 15:01:00,76.0,60.0,-100.00,NNE,31,3.0,6.0,58,0.00,,,0.00,1023.000000,,2013-06-30 22:01:00,
2013-06-30 15:11:00,76.0,60.0,-100.00,NNE,31,3.0,6.0,58,0.00,,,0.00,1023.000000,,2013-06-30 22:11:00,
2013-06-30 15:43:00,74.0,58.0,-100.00,NNE,31,5.0,7.0,57,0.00,,,0.00,963.000000,,2013-06-30 22:43:00,
2013-06-30 15:53:00,74.0,58.0,-100.00,NNE,31,5.0,7.0,57,0.00,,,0.00,963.000000,,2013-06-30 22:53:00,
2013-06-30 16:01:00,74.0,58.0,-100.00,NNE,31,5.0,7.0,57,0.00,,,0.00,963.000000,,2013-06-30 23:01:00,
2013-06-30 16:11:00,74.0,58.0,-100.00,NNE,31,5.0,7.0,57,0.00,,,0.00,963.000000,,2013-06-30 23:11:00,
2013-06-30 16:33:00,74.0,58.0,-100.00,NNE,27,5.0,8.0,58,0.00,,,0.00,852.000000,,2013-06-30 23:33:00,
2013-06-30 16:44:00,74.0,58.0,-100.00,NNE,27,5.0,8.0,58,0.00,,,0.00,852.000000,,2013-06-30 23:44:00,
2013-06-30 16:53:00,74.0,58.0,-100.00,NNE,27,5.0,8.0,58,0.00,,,0.00,852.000000,,2013-06-30 23:53:00,
2013-06-30 17:01:00,74.0,58.0,-100.00,NNE,27,5.0,8.0,58,0.00,,,0.00,852.000000,,2013-07-01 00:01:00,
2013-06-30 17:11:00,74.0,58.0,-100.00,NNE,27,5.0,8.0,58,0.00,,,0.00,852.000000,,2013-07-01 00:11:00,
2013-06-30 17:33:00,73.0,57.0,-100.00,NNE,23,4.0,9.0,57,0.00,,,-99.99,699.000000,,2013-07-01 00:33:00,
2013-06-30 17:42:00,73.0,57.0,-100.00,NNE,23,4.0,9.0,57,0.00,,,-99.99,699.000000,,2013-07-01 00:42:00,
2013-06-30 17:52:00,73.0,57.0,-100.00,NNE,23,4.0,9.0,57,0.00,,,-99.99,699.000000,,2013-07-01 00:52:00,
2013-06-30 18:01:00,73.0,57.0,-100.00,NNE,23,4.0,9.0,57,0.00,,,-99.99,699.000000,,2013-07-01 01:01:00,
2013-06-30 18:11:00,73.0,57.0,-100.00,NNE,23,4.0,9.0,57,0.00,,,-99.99,699.000000,,2013-07-01 01:11:00,
2013-06-30 18:34:00,72.0,58.0,-100.00,NNE,31,4.0,8.0,62,0.00,,,0.00,516.000000,,2013-07-01 01:34:00,
2013-06-30 18:43:00,72.0,58.0,-100.00,NNE,31,4.0,8.0,62,0.00,,,0.00,516.000000,,2013-07-01 01:43:00,
2013-06-30 18:52:00,72.0,58.0,-100.00,NNE,31,4.0,8.0,62,0.00,,,0.00,516.000000,,2013-07-01 01:52:00,
2013-06-30 19:02:00,72.0,58.0,-100.00,NNE,31,4.0,8.0,62,0.00,,,0.00,516.000000,,2013-07-01 02:02:00,
2013-06-30 19:11:00,72.0,58.0,-100.00,NNE,31,4.0,8.0,62,0.00,,,0.00,516.000000,,2013-07-01 02:11:00,
2013-06-30 19:44:00,70.0,60.0,-100.00,North,354,2.0,7.0,71,0.00,,,0.00,318.000000,,2013-07-01 02:44:00,
2013-06-30 19:54:00,70.0,60.0,-100.00,North,354,2.0,7.0,71,0.00,,,0.00,318.000000,,2013-07-01 02:54:00,
2013-06-30 20:01:00,70.0,60.0,-100.00,North,354,2.0,7.0,71,0.00,,,0.00,318.000000,,2013-07-01 03:01:00,
2013-06-30 20:11:00,70.0,60.0,-100.00,North,354,2.0,7.0,71,0.00,,,0.00,318.000000,,2013-07-01 03:11:00,
2013-06-30 20:43:00,64.0,58.0,-100.00,NNE,13,3.0,5.0,82,0.00,,,0.00,141.000000,,2013-07-01 03:43:00,
2013-06-30 20:52:00,64.0,58.0,-100.00,NNE,13,3.0,5.0,82,0.00,,,0.00,141.000000,,2013-07-01 03:52:00,
2013-06-30 21:01:00,64.0,58.0,-100.00,NNE,13,3.0,5.0,82,0.00,,,0.00,141.000000,,2013-07-01 04:01:00,
2013-06-30 21:11:00,64.0,58.0,-100.00,NNE,13,3.0,5.0,82,0.00,,,0.00,141.000000,,2013-07-01 04:11:00,
2013-06-30 21:32:00,58.0,57.0,-100.00,NNE,13,3.0,5.0,95,0.00,,,0.00,18.000000,,2013-07-01 04:32:00,
2013-06-30 21:43:00,58.0,57.0,-100.00,NNE,13,3.0,5.0,95,0.00,,,0.00,18.000000,,2013-07-01 04:43:00,
2013-06-30 21:53:00,58.0,57.0,-100.00,NNE,13,3.0,5.0,95,0.00,,,0.00,18.000000,,2013-07-01 04:53:00,
2013-06-30 22:01:00,58.0,57.0,-100.00,NNE,13,3.0,5.0,95,0.00,,,0.00,18.000000,,2013-07-01 05:01:00,
2013-06-30 22:11:00,58.0,57.0,-100.00,NNE,13,3.0,5.0,95,0.00,,,0.00,18.000000,,2013-07-01 05:11:00,
2013-06-30 22:33:00,58.0,57.0,-100.00,NE,40,3.0,5.0,98,0.00,,,0.00,0.000000,,2013-07-01 05:33:00,
2013-06-30 22:42:00,58.0,57.0,-100.00,NE,40,3.0,5.0,98,0.00,,,0.00,0.000000,,2013-07-01 05:42:00,
2013-06-30 22:52:00,58.0,57.0,-100.00,NE,40,3.0,5.0,98,0.00,,,0.00,0.000000,,2013-07-01 05:52:00,
2013-06-30 23:02:00,58.0,57.0,-100.00,NE,40,3.0,5.0,98,0.00,,,0.00,0.000000,,2013-07-01 06:02:00,
2013-06-30 23:12:00,58.0,57.0,-100.00,NE,40,3.0,5.0,98,0.00,,,0.00,0.000000,,2013-07-01 06:12:00,
2013-06-30 23:43:00,58.0,58.0,-100.00,NNE,20,3.0,6.0,99,0.00,,,0.00,0.000000,,2013-07-01 06:43:00,
2013-06-30 23:53:00,58.0,58.0,-100.00,NNE,20,3.0,6.0,99,0.00,,,0.00,0.000000,,2013-07-01 06:53:00,